Torna al catalogo

COSMOS 1176 FUEL CORE

AttivoLEO
NORAD 11971·DEBRIS·🇷🇺 Russia

Lanciato Apr 29, 1980 da Baikonur Cosmodrome

Loading…

Prossimi Passaggi (prossime 24 ore)

TLE

AggiornatoSource: Space-Track

Epoca: Sep 14, 2026, 06:25 UTC

1 11971U 80034D   26257.26789681 -.00000100  00000-0 -50167-5 0  9990
2 11971  64.8326 204.2457 0038589 208.2891 300.5202 13.96933582358059

Traccia COSMOS 1176 FUEL CORE in tempo reale con AllMySat

Download on the App Store